TimeCST,TemperatureF,Dew PointF,Humidity,Sea Level PressureIn,VisibilityMPH,Wind Direction,Wind SpeedMPH,Gust SpeedMPH,PrecipitationIn,Events,Conditions,WindDirDegrees,DateUTC
12:53 AM,10.9,5.0,77,30.53,10.0,NE,8.1,-,N/A,,Clear,50,2013-01-24 06:53:00
1:53 AM,10.0,5.0,80,30.54,10.0,NE,8.1,-,N/A,,Clear,50,2013-01-24 07:53:00
2:53 AM,9.0,5.0,84,30.54,10.0,ENE,8.1,-,N/A,,Clear,60,2013-01-24 08:53:00
3:53 AM,8.1,3.9,83,30.51,10.0,ENE,9.2,-,N/A,,Clear,70,2013-01-24 09:53:00
4:53 AM,8.1,3.0,80,30.51,10.0,ENE,10.4,-,N/A,,Clear,70,2013-01-24 10:53:00
5:53 AM,7.0,3.0,84,30.52,10.0,East,10.4,-,N/A,,Clear,90,2013-01-24 11:53:00
6:36 AM,6.8,1.4,79,30.39,10.0,East,10.4,-,N/A,,Partly Cloudy,90,2013-01-24 12:36:00
6:53 AM,6.1,1.9,83,30.51,10.0,ESE,8.1,-,N/A,,Clear,110,2013-01-24 12:53:00
7:53 AM,5.0,-0.9,76,30.51,10.0,ESE,9.2,-,N/A,,Clear,120,2013-01-24 13:53:00
8:53 AM,6.1,-0.0,76,30.51,10.0,ESE,11.5,-,N/A,,Clear,110,2013-01-24 14:53:00
9:53 AM,7.0,-0.0,73,30.52,10.0,SE,9.2,-,N/A,,Clear,130,2013-01-24 15:53:00
10:53 AM,9.0,-0.0,67,30.49,10.0,SE,9.2,-,N/A,,Clear,140,2013-01-24 16:53:00
11:53 AM,12.0,1.9,64,30.44,10.0,SSE,12.7,-,N/A,,Clear,150,2013-01-24 17:53:00
12:53 PM,14.0,1.0,56,30.38,10.0,SSE,15.0,-,N/A,,Scattered Clouds,150,2013-01-24 18:53:00
1:53 PM,15.1,1.9,56,30.33,10.0,SSE,11.5,-,N/A,,Mostly Cloudy,160,2013-01-24 19:53:00
2:35 PM,15.8,1.4,53,30.17,10.0,SSE,12.7,-,N/A,,Overcast,160,2013-01-24 20:35:00
2:53 PM,17.1,3.0,54,30.28,10.0,South,12.7,-,N/A,,Overcast,170,2013-01-24 20:53:00
3:53 PM,19.0,3.9,52,30.24,10.0,SSE,13.8,-,N/A,,Overcast,160,2013-01-24 21:53:00
4:53 PM,21.0,3.0,46,30.20,10.0,SSE,13.8,-,N/A,,Overcast,160,2013-01-24 22:53:00
5:53 PM,21.0,3.9,48,30.21,10.0,South,13.8,-,N/A,,Overcast,180,2013-01-24 23:53:00
6:53 PM,21.0,3.9,48,30.21,10.0,South,13.8,-,N/A,,Overcast,190,2013-01-25 00:53:00
7:53 PM,21.0,6.1,53,30.21,10.0,SSW,15.0,-,N/A,,Mostly Cloudy,200,2013-01-25 01:53:00
8:01 PM,19.4,6.8,58,30.10,10.0,SSW,11.5,-,N/A,,Scattered Clouds,200,2013-01-25 02:01:00
8:53 PM,21.0,8.1,57,30.21,10.0,SSW,6.9,-,N/A,,Clear,210,2013-01-25 02:53:00
9:53 PM,21.0,8.1,57,30.21,10.0,SSW,10.4,-,N/A,,Clear,200,2013-01-25 03:53:00
10:53 PM,21.0,9.0,60,30.21,10.0,SSW,8.1,-,N/A,,Clear,200,2013-01-25 04:53:00
11:53 PM,19.9,9.0,62,30.21,10.0,SSW,5.8,-,N/A,,Clear,200,2013-01-25 05:53:00